STARLINK-34614, 65030

Orbit data source: Space-Track

STARLINK-34614, 65030 is a payload satellite owned by SpaceX/Seattle (US) in LEO that was launched on Wed, 30 Jul 2025 UTC via an FALCON 9 launch vehicle from the Air Force Eastern Test Range (AFETR). Payload-class satellites include a variety of spacecraft equipped with specific instruments for various scientific and technological missions. These include communications satellites like Starlink; space stations such as the ISS; scientific satellites like the Hubble; Earth observation satellites from companies like Planet Labs, Umbra, and HawkEye 360; GPS; miniature CubeSats for education and research; and military/defense satellites.

Loading next visibility...
Identifier
65030, 2025-161R
Orbit
LEO
Country
Flag of USUS
Related business
Manufacturer
SpaceX/Seattle
Mission
Operational spacecraft
Bus & Motor
STARLINK V2MO, Unknown motor
Mass
575 kg wet, ~530 kg dry
Launch date (UTC)
2025-07-30 (1 month ago)
Launch vehicle
FALCON 9
Launch site
Air Force Eastern Test Range (AFETR)
Object type
Payload
Rocket body
Debris
Shape & HBR
Unknown
Radar Cross Section
Large (>1 m²)

Expand to show TLE details & history
Last TLE update: 10 hours ago

TLE from 10 hours ago
0 STARLINK-34614
1 65030U 25161R   25242.89657514  .00067911  00000-0  16943-2 0  9998
2 65030  53.1607 102.8971 0000936  56.3525 303.7569 15.39590103  6083
Epoch: 2025-08-30T21:31Z
TLE epoch observation values (Epoch: 2025-08-30T21:31:04.092Z)
Latitude
-0.00001°
Longitude
160.80575°
Altitude
447.869 km
Speed
7.645 km/s
True Right ascension
06h 51m 35s
True Declination
0° 00' 00"
Sunlit
Object was in daylight at epoch
Visualization orbit readout
Latitude
Unknown
Longitude
Unknown
Altitude
Unknown
Speed
Unknown
Apparent Right ascension
Unknown
Apparent Declination
Unknown
Sunlit
N/A
Visualization observer readout
Local Sidereal Time
22:52:48
Azimuth
Unknown
Elevation
Unknown
Doppler factor
Unknown
Orbital elements
Apogee altitude
448.217 km
Perigee altitude
446.939 km
Semi-major axis
6,825.715 km
Eccentricity
0.00009
Inclination
53.1607°
RAAN
102.8971°
Arg. of periapsis
56.3525°
True anomaly
303.74798°
Mean anomaly
303.7569°
Eccentric anomaly
303.75244°
Mean motion
3.84876 °/min
Orbital period
93.54 mins
BSTAR
0.0016943
Loading maneuver chart data...
Computing Atmospheric mass density...
Loading historical data...
Loading historical data...
Loading historical data...
Loading historical data...
Loading historical data...
Loading historical data...
Loading historical data...

Documentation

Showing up to 5 results
|